Wind_Speed
8 9 10 11 12 13 13 14 15 17 17 18 19 20 20 20 21 21 22 23 23 24 24 23 24 24 25 25 25 25 26 26 26 27 27 26 26 26 26 26 26 26 27 27
7 9 10 11 11 12 13 14 15 17 17 18 19 21 21 21 21 22 22 22 23 23 23 23 23 24 25 25 25 25 26 27 27 28 27 26 26 26 27 27 26 26 28 29
9 10 10 11 11 12 13 14 15 16 17 18 20 20 21 21 21 21 21 21 22 23 23 24 24 24 26 26 26 27 27 28 29 28 28 27 27 27 27 27 27 27 28 29
9 10 10 10 10 10 12 14 15 16 16 17 18 18 20 21 21 22 22 22 22 23 25 25 25 25 26 27 27 28 28 28 29 29 29 28 28 28 28 28 28 29 30 31
9 9 10 10 11 11 12 13 14 15 15 16 17 17 19 21 21 22 23 23 23 24 24 25 25 25 26 26 27 28 28 28 28 29 29 30 29 29 28 28 28 29 30 31
9 10 11 12 12 12 13 13 14 14 14 15 16 18 18 20 21 21 22 22 22 22 23 24 24 25 26 26 27 27 28 28 28 28 28 28 28 28 28 28 29 30 30 30
9 10 11 12 12 13 14 13 13 14 15 16 18 18 19 20 20 20 20 20 21 21 22 23 24 25 26 27 27 28 27 27 27 27 27 27 28 28 28 29 29 30 30 30
9 11 12 12 13 14 14 14 14 15 15 16 19 20 19 19 19 18 18 19 19 20 21 22 23 24 25 26 26 27 27 27 27 28 27 28 28 28 28 29 29 29 30 31
10 11 12 12 13 14 15 15 16 17 17 17 18 20 19 19 19 19 19 19 19 19 20 21 22 23 23 24 25 25 25 26 26 27 27 28 28 29 29 29 30 30 31 31
11 11 12 13 13 13 14 15 16 16 16 17 16 18 19 18 18 18 18 18 19 19 20 21 21 21 22 23 23 24 25 25 26 26 27 28 28 29 30 30 31 31 31 31
11 11 12 12 12 13 13 14 15 15 16 16 15 16 19 18 18 17 17 17 18 19 19 20 21 21 22 22 22 23 24 24 24 25 26 28 29 29 30 30 30 31 31 32
11 11 11 12 12 13 14 14 14 15 15 15 15 16 17 17 16 17 16 16 17 18 19 20 20 21 21 22 23 23 24 24 24 25 26 27 28 28 28 28 29 30 30 31
11 11 11 11 12 12 13 13 13 13 14 14 14 15 16 16 15 15 16 16 17 18 19 20 20 21 21 22 23 23 23 24 24 24 25 26 26 27 27 26 27 28 28 29
11 11 11 11 12 13 13 13 13 13 13 14 14 14 15 15 15 15 16 17 17 18 19 20 20 21 21 21 21 22 23 24 24 24 24 25 26 26 26 26 26 26 27 27
12 12 12 12 13 13 13 13 13 13 12 12 13 13 14 15 15 15 16 16 18 18 19 20 20 21 21 21 21 22 23 23 24 24 24 24 25 24 24 24 24 24 25 24
13 13 13 13 14 13 13 12 12 12 12 12 13 13 14 14 14 15 15 16 17 18 18 19 19 20 20 20 21 21 22 22 22 22 23 22 21 20 21 21 21 21 22 22
13 13 13 12 13 13 12 11 12 11 11 12 12 12 12 12 13 14 14 15 15 16 17 17 18 18 18 18 19 19 19 19 20 20 19 19 19 19 18 18 18 18 18 19
13 13 12 12 12 12 11 11 10 10 10 10 11 11 11 11 12 13 13 14 14 15 15 15 16 15 15 16 17 17 17 17 17 17 16 16 16 16 16 16 16 16 17 18
13 12 12 12 12 11 10 9 9 10 9 9 9 9 10 11 11 12 12 13 14 13 13 13 14 14 14 14 15 16 15 15 15 15 15 14 14 14 15 15 15 15 16 16
14 12 12 11 11 10 9 9 9 9 8 8 8 8 9 10 10 11 11 12 12 12 13 13 13 13 13 14 14 13 13 14 14 13 13 13 13 13 13 13 13 13 13 12
13 12 11 10 10 9 8 8 7 7 7 7 7 7 8 9 9 10 11 11 11 12 12 12 12 12 12 12 12 12 12 12 12 12 12 12 12 11 12 12 12 12 12 11
13 12 11 10 9 8 7 7 6 6 6 6 6 6 7 8 9 9 10 10 10 10 11 11 11 11 11 11 11 12 12 11 11 11 11 11 11 11 11 11 11 11 11 11
12 12 11 10 9 8 7 7 6 5 5 5 5 6 6 7 8 8 8 9 9 9 10 11 11 11 11 11 11 11 11 11 11 11 10 10 10 10 10 10 10 10 9 10
13 12 11 10 9 8 7 7 6 5 4 5 5 5 6 6 6 7 7 8 8 9 10 11 11 12 12 12 12 11 11 11 12 11 11 10 10 10 10 10 10 10 9 9
13 12 10 9 8 8 7 6 5 4 4 4 4 5 5 5 6 6 7 8 8 8 9 10 11 12 12 12 12 12 12 12 11 11 11 11 10 10 10 10 10 10 10 10
13 12 10 9 8 8 7 6 5 4 4 3 3 4 4 4 5 6 7 7 8 9 10 11 11 11 12 12 12 12 13 12 12 11 11 11 11 11 10 11 11 10 10 10
Wind_Direction
227 232 236 238 237 238 241 242 246 252 256 257 260 262 263 267 267 269 270 272 273 275 274 274 274 272 271 272 273 275 276 277 275 274 275 275 274 275 276 276 275 275 276 277
229 236 238 240 241 242 244 247 252 257 258 261 264 266 268 270 271 272 271 270 271 274 274 273 272 271 272 274 276 277 277 276 275 276 275 274 274 275 275 275 275 276 276 277
223 235 239 242 244 246 249 249 253 258 262 263 266 268 270 270 270 272 272 273 273 274 272 271 271 273 274 273 273 276 277 278 275 276 275 274 273 274 275 275 275 275 276 276
231 236 239 243 247 250 253 252 257 262 267 270 269 270 271 270 271 272 273 274 274 274 274 273 273 274 274 273 273 275 275 277 276 276 276 273 274 275 275 276 276 276 277 277
240 241 240 242 248 251 252 256 260 264 265 265 270 269 273 273 274 274 275 275 275 274 274 275 274 275 276 276 276 276 277 277 277 277 277 275 275 277 277 278 279 279 279 278
247 250 248 248 250 254 257 261 264 266 269 270 269 271 273 276 278 276 275 276 274 275 276 276 276 277 276 277 278 278 278 277 278 278 277 275 275 277 277 277 277 279 279 278
256 258 258 258 257 258 260 261 267 270 270 271 271 273 274 278 279 278 278 278 274 273 276 277 278 278 278 279 280 278 279 279 279 277 277 276 276 277 278 278 278 278 279 279
262 263 262 261 260 260 259 259 257 260 266 271 275 275 277 279 278 278 278 278 277 276 279 280 280 279 279 279 278 277 278 278 278 277 277 276 277 278 279 279 278 278 279 280
261 262 264 264 264 262 262 261 259 261 264 268 275 280 280 278 278 278 277 277 278 280 282 283 283 281 281 280 278 278 280 279 277 277 277 277 277 277 277 278 279 279 278 279
262 267 266 268 268 265 263 263 264 265 268 271 276 282 284 281 282 280 277 277 279 281 282 283 284 283 283 282 282 283 282 283 280 277 276 277 278 278 278 278 279 279 277 278
264 267 269 266 266 269 267 265 266 267 266 271 278 282 286 286 284 282 277 278 280 281 286 287 286 286 285 285 286 286 283 284 285 282 279 280 279 278 279 279 278 278 277 277
265 266 267 266 266 268 268 266 267 270 275 275 279 286 287 286 287 286 282 281 283 286 287 288 291 291 290 290 288 287 287 288 288 287 283 282 282 281 281 280 279 278 278 277
263 266 270 274 277 275 272 266 266 269 273 278 283 287 288 290 290 288 286 287 289 291 293 294 296 295 295 293 291 289 288 288 288 289 286 284 283 282 282 281 280 279 278 278
260 264 264 268 274 277 275 271 268 270 277 282 283 286 289 291 294 292 292 292 293 293 295 297 299 299 298 296 294 293 291 289 288 290 290 287 285 285 283 282 281 279 280 280
261 264 264 266 270 273 274 274 271 270 275 280 283 286 290 292 296 296 294 294 296 296 297 298 298 299 299 298 297 296 294 292 290 289 290 289 286 285 284 284 282 281 283 282
261 265 268 270 271 272 272 274 275 273 274 280 284 286 291 293 296 297 296 296 298 299 301 302 301 301 300 300 299 298 298 297 294 292 291 291 291 290 288 286 285 285 285 286
262 265 269 272 272 271 272 275 276 275 276 283 287 288 291 294 298 299 300 302 303 304 305 305 305 305 304 304 303 303 303 302 301 299 297 295 294 293 296 294 290 288 288 287
261 264 269 272 272 271 272 273 276 277 280 284 289 291 292 297 301 304 305 307 309 310 310 310 311 311 311 309 309 307 307 308 307 306 305 303 301 298 302 300 297 296 296 293
258 260 265 268 271 274 275 275 276 277 284 288 291 294 297 301 303 307 310 312 314 316 318 319 318 317 316 314 313 312 312 313 314 312 309 306 303 304 306 307 305 305 304 299
253 255 259 263 268 268 270 275 278 279 282 290 295 299 301 306 308 313 316 318 320 321 322 324 325 324 322 322 321 319 319 319 318 316 314 312 310 310 312 313 313 312 314 311
248 248 251 256 262 264 268 272 274 277 286 294 299 302 306 310 315 316 319 323 326 328 328 330 332 330 329 329 329 330 329 328 327 325 323 321 318 317 316 319 319 314 316 319
240 241 242 244 253 261 263 264 266 275 287 296 301 305 310 315 319 321 323 328 333 336 339 341 341 341 339 338 338 339 339 339 338 335 331 327 323 323 323 323 323 320 319 319
231 233 237 241 248 254 258 257 258 270 283 293 302 309 315 319 325 331 334 338 342 347 349 349 350 351 352 350 347 344 344 345 345 346 346 345 343 340 339 336 335 335 331 330
226 228 234 243 249 253 258 259 261 268 283 294 301 312 320 329 338 348 350 350 351 352 354 356 357 356 354 354 353 351 349 351 350 354 355 357 356 355 355 355 355 353 350 348
222 225 233 241 246 251 257 259 259 267 287 301 309 320 328 338 350 356 359 360 1 2 1 2 2 2 2 3 3 3 5 4 4 3 2 359 356 353 353 356 358 360 3 6
224 227 233 238 243 246 250 253 255 267 284 298 313 332 343 354 2 3 7 10 10 11 10 9 8 7 8 8 9 10 10 12 12 11 10 9 8 5 0 359 359 360 2 6
Height
5845 5848 5849 5850 5852 5853 5854 5856 5857 5857 5857 5859 5859 5859 5860 5859 5860 5860 5859 5859 5858 5857 5856 5855 5855 5854 5854 5853 5853 5852 5851 5850 5849 5848 5847 5846 5845 5844 5844 5843 5842 5840 5839 5838
5844 5846 5847 5847 5849 5850 5851 5853 5854 5854 5854 5855 5855 5855 5855 5855 5855 5855 5854 5854 5853 5852 5851 5850 5849 5849 5848 5848 5847 5846 5845 5844 5843 5842 5840 5840 5839 5838 5837 5836 5835 5834 5833 5832
5843 5844 5844 5845 5846 5848 5849 5850 5851 5851 5851 5851 5851 5851 5851 5850 5850 5849 5849 5848 5847 5846 5845 5844 5844 5843 5842 5842 5841 5840 5839 5838 5836 5835 5834 5833 5832 5831 5830 5829 5828 5827 5825 5824
5840 5841 5842 5843 5844 5845 5846 5846 5847 5847 5848 5848 5848 5848 5847 5846 5845 5844 5844 5843 5842 5841 5839 5838 5838 5837 5836 5836 5835 5834 5833 5832 5830 5828 5827 5826 5825 5824 5823 5822 5821 5819 5818 5817
5838 5839 5840 5841 5841 5842 5843 5843 5843 5843 5844 5844 5844 5844 5844 5841 5840 5840 5838 5837 5836 5835 5834 5833 5832 5831 5831 5830 5829 5827 5826 5825 5823 5821 5820 5819 5818 5817 5816 5814 5813 5812 5810 5809
5836 5837 5837 5838 5838 5839 5839 5840 5840 5840 5841 5841 5841 5841 5840 5837 5836 5834 5833 5832 5831 5829 5828 5827 5826 5825 5825 5824 5823 5821 5819 5818 5816 5814 5813 5812 5811 5810 5809 5807 5806 5804 5803 5801
5834 5834 5834 5835 5835 5836 5836 5838 5839 5839 5839 5839 5836 5835 5835 5832 5831 5829 5828 5826 5825 5824 5823 5822 5821 5820 5819 5818 5816 5814 5812 5810 5809 5807 5806 5805 5804 5803 5801 5800 5798 5797 5795 5794
5832 5833 5832 5832 5832 5832 5833 5834 5836 5836 5836 5835 5831 5830 5830 5828 5826 5825 5823 5821 5820 5819 5818 5816 5815 5814 5812 5811 5809 5807 5805 5803 5802 5800 5799 5798 5797 5795 5794 5792 5791 5789 5787 5786
5830 5830 5828 5828 5828 5829 5829 5829 5830 5830 5829 5829 5828 5826 5824 5823 5822 5820 5819 5817 5815 5814 5813 5811 5810 5808 5806 5804 5802 5800 5798 5796 5795 5793 5792 5791 5790 5788 5786 5784 5783 5781 5779 5778
5826 5826 5825 5825 5825 5825 5825 5825 5825 5825 5825 5825 5824 5822 5821 5818 5817 5816 5814 5812 5811 5809 5808 5806 5804 5802 5800 5798 5796 5794 5792 5790 5788 5787 5785 5784 5782 5780 5778 5777 5775 5773 5771 5769
5822 5823 5823 5822 5822 5821 5821 5821 5821 5821 5821 5820 5820 5821 5816 5814 5813 5811 5809 5808 5806 5805 5803 5801 5799 5797 5795 5793 5790 5788 5786 5784 5782 5780 5778 5776 5775 5773 5771 5769 5766 5764 5763 5761
5819 5819 5819 5819 5818 5817 5817 5817 5817 5817 5816 5815 5815 5817 5811 5810 5808 5807 5805 5803 5802 5800 5798 5796 5794 5792 5790 5787 5785 5783 5780 5778 5776 5774 5772 5769 5767 5765 5763 5761 5759 5757 5755 5753
5816 5816 5816 5816 5817 5815 5813 5813 5813 5812 5812 5812 5811 5813 5807 5806 5804 5802 5801 5799 5798 5796 5794 5791 5789 5786 5784 5781 5779 5776 5774 5772 5769 5767 5765 5762 5760 5758 5756 5754 5751 5749 5747 5745
5812 5813 5814 5814 5813 5811 5810 5809 5809 5809 5808 5808 5807 5807 5804 5802 5800 5798 5797 5795 5793 5791 5789 5787 5784 5781 5778 5775 5773 5770 5768 5765 5763 5761 5758 5755 5753 5750 5748 5746 5744 5742 5740 5738
5809 5809 5809 5808 5808 5807 5806 5806 5805 5805 5805 5804 5804 5802 5800 5798 5797 5795 5793 5791 5789 5786 5784 5781 5778 5775 5772 5770 5767 5764 5762 5759 5756 5754 5751 5748 5746 5744 5742 5739 5737 5735 5733 5731
5805 5805 5805 5805 5804 5803 5803 5803 5802 5802 5801 5800 5799 5798 5796 5794 5793 5791 5789 5787 5784 5782 5779 5776 5773 5770 5767 5764 5761 5758 5756 5753 5750 5747 5744 5742 5740 5738 5735 5733 5731 5729 5727 5725
5801 5802 5802 5801 5801 5800 5800 5800 5799 5799 5798 5797 5796 5795 5793 5791 5789 5787 5785 5783 5780 5777 5775 5771 5768 5765 5762 5759 5756 5753 5750 5747 5744 5741 5739 5736 5734 5732 5730 5728 5725 5723 5721 5719
5798 5798 5798 5798 5798 5798 5800 5797 5796 5796 5795 5794 5792 5791 5789 5788 5786 5784 5782 5779 5776 5773 5770 5767 5764 5761 5758 5755 5752 5749 5746 5743 5740 5737 5735 5732 5730 5728 5726 5723 5721 5719 5717 5714
5794 5795 5795 5795 5795 5795 5795 5794 5793 5793 5792 5791 5789 5788 5787 5785 5783 5781 5778 5775 5773 5770 5767 5764 5760 5757 5754 5751 5748 5745 5742 5740 5737 5734 5731 5729 5726 5724 5722 5719 5717 5714 5712 5710
5790 5791 5792 5792 5792 5792 5793 5792 5790 5791 5789 5788 5787 5785 5784 5782 5780 5778 5775 5772 5769 5767 5764 5761 5757 5754 5751 5748 5745 5742 5739 5737 5734 5731 5728 5725 5723 5721 5719 5716 5714 5712 5709 5707
5786 5787 5788 5789 5789 5790 5790 5788 5789 5789 5788 5786 5784 5783 5781 5779 5778 5775 5772 5769 5767 5764 5761 5758 5755 5752 5749 5746 5743 5740 5737 5734 5731 5728 5725 5723 5721 5718 5716 5713 5711 5709 5707 5705
5783 5785 5786 5786 5787 5789 5787 5786 5787 5786 5784 5783 5782 5781 5779 5777 5775 5772 5770 5767 5764 5761 5759 5756 5753 5750 5746 5743 5741 5738 5735 5732 5729 5726 5723 5721 5718 5716 5713 5711 5709 5707 5705 5703
5780 5782 5783 5785 5787 5785 5784 5784 5784 5783 5782 5781 5780 5779 5777 5775 5773 5770 5768 5765 5763 5760 5757 5754 5751 5748 5745 5742 5739 5736 5733 5731 5728 5725 5722 5720 5717 5715 5712 5710 5707 5705 5703 5701
5777 5779 5780 5781 5782 5782 5782 5782 5782 5781 5780 5779 5778 5777 5775 5773 5771 5769 5767 5764 5762 5760 5757 5754 5751 5748 5745 5741 5738 5735 5732 5730 5727 5724 5721 5719 5717 5714 5712 5709 5707 5704 5702 5700
5774 5776 5778 5779 5780 5780 5780 5780 5779 5779 5778 5778 5776 5775 5773 5772 5770 5768 5766 5764 5761 5759 5756 5753 5750 5747 5744 5741 5738 5735 5732 5729 5726 5724 5721 5719 5716 5714 5711 5709 5707 5704 5702 5700
5772 5774 5776 5777 5777 5778 5778 5778 5777 5777 5777 5776 5775 5774 5772 5771 5769 5767 5765 5763 5761 5759 5756 5753 5750 5747 5744 5741 5738 5735 5732 5730 5727 5724 5722 5719 5716 5713 5711 5709 5706 5704 5702 5700